Wind_Speed
3 4 4 3 4 4 4 5 5 4 5 5 4 3 4 5 5 4 5 6 6 6 6 6 7 7 8 9 9 9 9 8 8 8 8 8 8 7 8 8 8 9 8
4 4 4 4 5 5 4 5 5 5 5 5 4 3 4 5 5 5 6 6 6 6 6 7 7 8 8 9 9 9 9 9 9 9 8 8 8 8 8 8 9 9 8
5 5 5 5 6 6 5 5 5 5 5 4 4 5 5 5 5 6 6 6 7 7 8 8 8 8 8 8 9 9 9 9 9 9 9 8 9 9 9 9 10 10 10
6 6 6 6 6 6 6 6 5 5 5 5 5 6 6 6 6 6 6 6 7 8 8 9 9 9 9 9 8 8 9 9 9 10 9 9 9 8 9 10 10 10 10
7 7 7 7 7 7 6 6 5 6 6 5 6 7 7 8 8 8 8 8 7 8 9 9 10 10 9 9 9 9 9 9 9 10 10 9 9 9 9 9 10 10 10
8 8 8 7 7 7 7 7 6 6 6 7 7 8 8 9 8 9 9 9 9 9 10 10 10 10 10 10 9 9 9 9 10 10 9 10 10 10 10 10 10 10 10
9 9 9 8 7 7 7 7 6 6 7 8 8 9 9 10 10 10 10 11 11 11 10 11 10 10 10 10 10 10 10 10 10 9 9 10 10 10 10 10 10 10 10
10 9 8 8 8 8 8 8 7 7 8 9 10 10 10 10 10 11 11 12 12 11 11 11 11 11 11 11 11 11 11 11 10 9 9 10 10 10 11 11 11 11 10
11 10 10 9 8 8 9 9 8 8 9 10 11 11 11 11 11 11 11 11 12 12 12 12 12 12 12 12 12 12 12 12 11 11 10 10 11 11 11 11 11 12 12
11 10 10 9 9 9 9 10 9 10 10 11 11 12 12 12 12 12 13 13 13 12 13 12 13 13 13 12 12 12 13 13 13 12 12 11 12 12 12 12 12 13 14
12 11 11 11 11 10 10 11 11 11 12 12 12 12 12 13 13 13 13 13 13 14 14 14 14 13 13 13 13 13 13 13 13 13 13 13 13 13 13 13 13 14 15
13 12 12 13 13 12 12 12 12 12 12 12 12 13 13 14 14 14 13 13 14 15 15 15 15 15 15 15 14 14 14 14 14 14 14 13 13 14 14 14 14 14 15
13 14 13 13 14 14 14 13 12 13 13 13 13 14 14 14 14 15 14 14 15 15 16 17 17 17 16 17 17 16 15 15 15 15 15 15 15 15 15 15 15 15 15
15 16 16 15 15 16 15 14 13 13 14 14 14 15 15 15 15 16 15 15 15 16 16 17 17 17 17 17 17 17 16 15 15 15 16 16 16 16 16 16 16 17 17
17 17 17 17 16 16 16 16 15 14 14 15 15 16 16 16 17 16 16 17 17 17 17 18 18 18 18 18 17 16 16 16 15 16 16 17 17 16 17 16 16 17 17
17 17 17 17 17 16 17 16 16 16 16 16 16 16 17 18 17 17 17 18 18 19 19 19 20 20 19 19 18 18 17 17 16 17 17 17 17 17 17 17 17 17 18
18 18 18 18 17 16 16 16 16 17 18 18 18 18 18 18 18 18 19 19 20 21 21 20 21 21 20 19 19 19 18 17 17 17 18 18 18 18 18 19 19 19 18
19 19 19 18 16 16 17 17 17 18 19 19 20 19 19 19 19 20 20 21 22 22 22 22 22 22 22 20 19 19 19 19 19 19 19 19 19 19 19 19 19 19 19
20 19 19 18 16 17 18 19 19 20 20 21 20 20 20 20 20 21 22 22 23 24 24 23 23 23 23 22 21 21 20 20 20 20 21 20 20 21 20 21 21 20 20
19 20 19 19 18 19 19 20 21 21 21 21 21 21 21 22 22 23 24 24 24 25 25 25 25 25 24 24 24 23 22 22 21 21 21 22 22 23 22 22 22 22 22
21 21 21 20 20 21 21 22 22 23 22 22 22 23 23 24 24 24 25 25 26 26 27 27 27 27 26 26 25 25 24 23 23 23 23 23 23 23 23 23 23 23 23
22 22 22 22 22 22 22 23 24 23 23 23 24 24 25 25 25 26 26 27 27 28 29 29 29 29 28 28 27 27 26 25 24 24 24 24 23 23 24 24 24 24 24
23 24 24 24 24 24 24 24 24 25 25 25 26 26 27 27 27 28 28 29 30 30 30 31 30 29 29 29 29 28 27 26 26 25 25 24 24 24 24 24 25 25 25
24 24 25 25 25 25 25 25 26 26 27 27 27 28 28 29 29 29 30 30 31 31 31 31 30 29 29 29 28 28 28 28 27 26 26 25 25 25 24 24 24 25 25
26 26 26 26 26 27 27 27 27 28 28 29 29 29 29 30 30 30 31 31 31 31 30 29 29 28 27 27 28 28 28 27 26 26 26 26 25 25 24 24 24 25 24
28 28 29 28 28 29 29 28 28 29 30 30 30 30 31 31 31 31 32 32 32 31 30 29 28 28 28 28 28 28 27 27 27 26 25 26 26 27 26 25 26 26 26
Wind_Direction
3 2 11 8 357 344 345 346 348 350 350 351 345 336 327 310 305 312 316 310 310 314 317 321 315 306 298 296 297 292 288 283 283 285 282 277 272 267 264 265 266 264 267
11 8 5 358 353 350 342 340 343 350 352 356 357 349 338 327 313 314 318 316 314 312 311 316 317 312 305 300 298 296 290 284 283 284 282 277 272 270 267 266 265 264 266
9 0 352 351 348 346 337 333 335 341 348 350 348 341 330 329 329 323 321 318 316 315 311 316 319 317 311 305 302 302 294 285 280 280 279 277 273 269 269 273 269 266 266
7 359 354 351 346 342 337 332 328 327 332 338 338 335 333 331 329 324 322 324 321 317 313 314 317 319 312 306 303 303 298 292 282 277 273 271 271 270 273 276 273 268 266
6 4 0 353 348 345 339 331 326 326 329 331 330 330 329 329 329 324 324 323 320 318 315 312 314 314 310 308 304 303 299 294 289 283 273 268 268 270 273 274 274 269 266
359 356 353 348 346 345 338 331 326 326 328 328 327 326 326 327 326 325 324 321 319 317 316 314 316 314 311 308 304 300 301 297 293 285 274 269 270 270 272 273 273 272 267
353 353 350 347 344 346 342 334 328 321 321 320 317 317 319 321 320 320 318 313 312 314 315 317 315 314 314 311 307 298 297 297 294 287 275 275 274 273 274 275 275 273 269
346 345 343 340 342 343 338 333 327 323 320 318 317 317 315 316 316 314 313 313 312 312 314 313 313 312 310 309 311 308 297 294 295 288 282 278 278 279 278 275 272 270 265
342 340 338 340 341 338 332 327 321 319 322 322 320 319 317 315 315 313 316 316 315 315 317 316 314 314 312 306 305 308 309 300 295 289 283 283 281 281 280 277 273 268 264
340 340 339 337 332 329 326 321 319 321 323 322 321 320 318 319 316 315 316 316 317 317 316 315 311 311 313 311 308 306 305 305 299 297 290 281 280 283 281 278 276 271 264
337 334 334 330 326 324 321 320 319 320 319 318 318 319 320 320 319 318 317 316 316 316 315 315 314 312 311 308 306 304 303 302 297 293 290 285 281 279 280 279 277 271 262
333 330 328 325 324 321 317 315 317 318 318 318 318 317 318 321 318 317 317 318 316 315 314 312 312 311 309 306 303 299 298 296 294 291 287 285 288 285 280 274 274 272 267
331 329 327 325 323 318 316 314 315 315 315 317 317 317 316 317 319 317 316 318 318 316 315 313 311 308 306 302 301 297 294 294 292 288 284 285 285 283 283 278 277 276 270
323 322 321 320 318 318 316 317 314 315 313 313 314 313 314 315 318 317 315 317 317 316 316 314 312 310 309 304 301 297 292 292 289 286 285 285 286 284 282 280 275 275 271
320 317 317 316 315 315 314 313 313 310 311 310 309 308 309 312 314 314 313 313 313 312 312 312 312 311 311 306 299 294 293 292 291 288 286 285 285 285 282 281 278 276 271
320 318 316 315 314 314 313 312 311 311 310 309 308 308 307 309 310 311 310 309 310 310 310 310 309 309 309 303 299 294 292 289 288 288 286 285 283 282 281 279 278 275 272
319 318 316 314 312 311 310 310 310 311 310 308 308 309 308 307 307 307 307 306 308 308 308 310 310 309 306 302 298 294 290 290 289 287 286 284 283 282 282 279 278 273 271
317 315 315 312 312 310 308 308 308 309 308 307 306 305 305 305 305 305 305 306 307 308 308 308 307 308 306 301 296 293 291 289 288 287 287 284 282 280 281 281 280 276 272
314 315 313 311 309 310 309 307 307 307 306 306 305 302 302 302 303 304 304 304 305 305 305 305 305 304 301 297 293 291 289 289 288 286 285 283 282 281 280 280 280 278 276
313 313 312 312 309 309 307 305 306 304 304 305 305 304 303 303 303 302 302 302 302 302 303 303 303 301 298 296 293 290 289 289 289 289 286 283 282 280 278 278 279 278 277
308 308 307 308 309 308 306 303 303 303 303 303 303 304 304 305 303 302 301 301 301 301 301 301 301 299 296 295 294 292 289 288 289 290 286 283 282 281 279 278 278 279 277
307 304 303 304 306 306 305 304 304 303 303 303 302 302 303 303 302 301 301 301 301 301 301 301 299 296 294 292 289 291 288 286 288 289 288 285 281 280 279 279 279 279 278
304 303 301 301 302 302 301 300 300 300 300 302 301 301 302 301 300 299 300 300 301 301 300 300 297 294 292 291 289 288 287 285 287 287 287 286 284 282 281 280 279 279 278
303 302 300 300 300 299 299 299 299 299 299 300 301 301 301 301 300 299 297 297 298 298 300 300 298 295 293 290 288 289 287 286 285 286 288 287 286 284 282 283 281 280 278
299 300 300 299 299 298 297 297 297 298 298 298 299 300 301 301 300 298 297 297 297 297 297 298 299 296 294 293 292 289 287 286 286 286 285 286 286 285 285 285 282 279 277
299 300 300 299 298 297 297 296 297 297 297 297 297 297 298 298 299 297 297 297 296 296 295 295 297 296 294 292 292 288 286 286 286 287 287 286 286 285 285 285 285 281 278
Height
5891 5891 5891 5891 5891 5890 5890 5890 5890 5890 5890 5889 5889 5889 5889 5889 5889 5889 5889 5888 5888 5887 5887 5886 5885 5885 5884 5884 5883 5883 5883 5883 5883 5883 5883 5883 5883 5883 5884 5884 5884 5885 5885
5892 5892 5892 5891 5891 5890 5890 5890 5890 5890 5889 5889 5889 5889 5888 5888 5888 5888 5888 5887 5887 5886 5885 5885 5884 5883 5882 5882 5881 5881 5880 5880 5880 5880 5880 5881 5881 5881 5881 5882 5882 5883 5883
5892 5892 5892 5891 5891 5890 5890 5890 5890 5890 5889 5889 5889 5889 5888 5888 5887 5887 5886 5886 5885 5884 5884 5883 5882 5881 5880 5880 5879 5878 5878 5878 5878 5878 5878 5878 5878 5878 5879 5879 5880 5880 5881
5893 5892 5892 5891 5891 5891 5890 5890 5890 5889 5889 5889 5888 5888 5888 5887 5886 5886 5885 5885 5884 5883 5882 5881 5880 5880 5879 5878 5877 5876 5876 5876 5876 5875 5875 5875 5876 5876 5876 5876 5877 5877 5878
5894 5893 5892 5891 5891 5890 5890 5889 5889 5889 5889 5888 5888 5887 5887 5886 5885 5885 5884 5883 5882 5881 5880 5880 5879 5878 5877 5876 5875 5874 5874 5873 5873 5872 5872 5873 5873 5873 5874 5874 5874 5874 5875
5894 5893 5892 5891 5891 5890 5889 5889 5888 5888 5888 5888 5887 5886 5886 5885 5884 5883 5883 5882 5881 5880 5879 5878 5876 5876 5875 5874 5873 5872 5871 5870 5870 5869 5869 5870 5870 5870 5871 5871 5871 5871 5872
5894 5893 5892 5891 5890 5889 5889 5888 5887 5887 5887 5886 5886 5885 5885 5884 5883 5882 5881 5880 5878 5877 5876 5875 5874 5873 5872 5871 5870 5870 5869 5868 5866 5866 5866 5866 5867 5868 5868 5868 5868 5868 5869
5894 5893 5892 5891 5890 5889 5888 5887 5886 5886 5885 5885 5884 5883 5883 5882 5881 5879 5878 5877 5876 5874 5873 5872 5871 5871 5870 5869 5868 5867 5866 5865 5864 5863 5863 5864 5864 5864 5865 5865 5865 5866 5866
5893 5892 5891 5890 5889 5888 5887 5886 5885 5885 5884 5883 5882 5881 5880 5879 5878 5877 5875 5874 5873 5872 5871 5870 5869 5868 5867 5866 5865 5864 5864 5863 5862 5861 5861 5861 5861 5861 5862 5862 5862 5862 5862
5892 5891 5890 5889 5888 5887 5886 5885 5884 5883 5882 5881 5880 5879 5878 5877 5876 5875 5873 5872 5870 5869 5868 5867 5866 5865 5864 5864 5863 5862 5861 5860 5859 5859 5858 5858 5858 5858 5858 5858 5859 5859 5859
5891 5890 5889 5888 5886 5885 5884 5883 5882 5881 5880 5879 5878 5877 5875 5874 5873 5872 5871 5870 5868 5867 5866 5864 5863 5862 5861 5860 5859 5859 5858 5857 5856 5856 5855 5855 5854 5854 5854 5854 5855 5855 5855
5890 5889 5887 5886 5885 5884 5882 5881 5880 5879 5878 5877 5876 5875 5873 5872 5871 5870 5868 5867 5866 5864 5863 5861 5860 5859 5858 5857 5856 5855 5854 5853 5853 5852 5852 5851 5851 5851 5850 5850 5850 5850 5851
5889 5887 5885 5884 5883 5881 5880 5879 5878 5877 5876 5874 5873 5872 5871 5870 5868 5867 5865 5864 5863 5861 5860 5858 5857 5855 5854 5853 5852 5851 5850 5849 5849 5848 5848 5847 5847 5847 5846 5846 5846 5846 5846
5887 5885 5883 5882 5880 5879 5877 5876 5875 5874 5873 5872 5871 5869 5868 5867 5865 5864 5862 5861 5860 5858 5857 5855 5853 5851 5850 5848 5847 5846 5845 5845 5844 5844 5843 5843 5843 5842 5842 5842 5842 5842 5842
5885 5883 5881 5879 5878 5876 5875 5873 5872 5871 5870 5868 5867 5866 5865 5864 5862 5860 5859 5858 5857 5855 5854 5852 5850 5847 5846 5844 5842 5841 5841 5841 5840 5840 5839 5839 5839 5838 5838 5837 5837 5837 5837
5882 5880 5878 5876 5875 5873 5872 5870 5869 5868 5867 5865 5864 5863 5862 5860 5859 5857 5856 5854 5853 5851 5849 5847 5845 5843 5841 5840 5838 5837 5836 5836 5835 5835 5835 5834 5834 5833 5833 5832 5832 5832 5832
5879 5877 5875 5873 5872 5870 5869 5867 5866 5864 5863 5862 5860 5859 5858 5856 5855 5853 5852 5850 5848 5846 5845 5843 5841 5839 5836 5835 5834 5833 5832 5831 5830 5830 5829 5829 5828 5828 5828 5827 5826 5826 5826
5876 5873 5871 5869 5868 5867 5866 5864 5862 5861 5859 5858 5856 5855 5853 5852 5850 5849 5847 5846 5844 5842 5840 5838 5836 5834 5831 5829 5828 5828 5827 5826 5825 5825 5824 5824 5823 5823 5822 5822 5821 5821 5820
5872 5869 5868 5866 5865 5864 5862 5860 5858 5857 5855 5853 5852 5850 5849 5847 5846 5844 5842 5841 5839 5837 5835 5832 5831 5829 5826 5824 5823 5822 5821 5821 5820 5819 5819 5818 5818 5817 5816 5816 5815 5815 5814
5868 5866 5864 5863 5861 5860 5858 5856 5854 5852 5851 5849 5847 5846 5844 5842 5840 5838 5837 5835 5833 5831 5829 5827 5825 5823 5820 5818 5817 5816 5816 5814 5814 5813 5812 5812 5811 5811 5810 5810 5809 5809 5808
5865 5862 5860 5859 5857 5855 5854 5852 5850 5848 5846 5844 5842 5841 5839 5837 5835 5833 5831 5829 5827 5825 5823 5821 5818 5816 5814 5812 5811 5810 5809 5808 5807 5806 5805 5805 5804 5803 5803 5802 5802 5802 5801
5860 5858 5856 5854 5852 5851 5849 5847 5845 5842 5840 5839 5837 5835 5833 5831 5829 5827 5825 5823 5821 5818 5816 5813 5811 5809 5807 5805 5804 5802 5801 5801 5801 5800 5798 5798 5797 5796 5796 5795 5794 5794 5794
5855 5853 5851 5849 5847 5845 5843 5841 5839 5837 5835 5833 5831 5829 5827 5825 5823 5820 5818 5816 5813 5811 5808 5806 5803 5801 5800 5798 5796 5795 5794 5793 5792 5791 5790 5790 5789 5788 5787 5787 5786 5786 5786
5849 5846 5845 5843 5841 5839 5837 5835 5832 5830 5828 5826 5824 5822 5820 5818 5815 5813 5811 5809 5806 5804 5801 5798 5796 5794 5792 5790 5788 5787 5786 5785 5785 5784 5783 5782 5781 5780 5779 5779 5778 5778 5777
5843 5841 5839 5837 5835 5833 5830 5828 5826 5823 5822 5820 5818 5815 5813 5810 5808 5806 5803 5801 5798 5796 5793 5791 5788 5786 5784 5782 5780 5779 5778 5777 5777 5776 5775 5774 5774 5773 5772 5771 5770 5769 5768
5837 5834 5832 5830 5828 5826 5823 5821 5819 5816 5814 5812 5810 5808 5805 5803 5800 5797 5795 5792 5790 5788 5785 5783 5781 5779 5776 5774 5773 5771 5770 5770 5769 5768 5767 5766 5765 5765 5764 5763 5761 5760 5759